| time (UTC) | temp C | wind direction | speed KPH | gust KPH | rain 1hr cm | rain 24hr cm | rain mn cm | humidity % | barometer mb |
| 20260503004347 | 6 | 10 | 0.0 | 3.2 | 0.00 | 0.00 | 0.00 | 91 | 1009.0 |
| 20260503002835 | 6 | 217 | 0.0 | 3.2 | 0.00 | 0.00 | 0.00 | 92 | 1008.8 |
| 20260503002103 | 6 | 214 | 0.0 | 4.8 | 0.00 | 0.00 | 0.00 | 92 | 1009.0 |
| 20260503001330 | 6 | 214 | 0.0 | 4.8 | 0.00 | 0.00 | 0.00 | 92 | 1009.0 |
| 20260502235803 | 6 | 333 | 1.6 | 4.8 | 0.00 | 0.00 | 0.00 | 88 | 1008.9 |
| 20260502234303 | 6 | 246 | 0.0 | 3.2 | 0.00 | 0.00 | 0.00 | 90 | 1008.7 |
| 20260502232754 | 6 | 142 | 0.0 | 4.8 | 0.00 | 0.00 | 0.00 | 91 | 1008.9 |
| 20260502231932 | 6 | 310 | 0.0 | 3.2 | 0.00 | 0.00 | 0.00 | 91 | 1009.0 |
| 20260502231231 | 6 | 310 | 0.0 | 3.2 | 0.00 | 0.00 | 0.00 | 91 | 1009.0 |
| 20260502230441 | 6 | 261 | 0.0 | 3.2 | 0.00 | 0.00 | 0.00 | 89 | 1009.1 |
| 20260502225729 | 6 | 261 | 0.0 | 3.2 | 0.00 | 0.00 | 0.00 | 89 | 1009.1 |
| 20260502224221 | 6 | 35 | 0.0 | 1.6 | 0.00 | 0.00 | 0.00 | 88 | 1009.1 |
| 20260502222705 | 7 | 22 | 0.0 | 3.2 | 0.00 | 0.00 | 0.00 | 86 | 1008.9 |
| 20260502221203 | 7 | 174 | 0.0 | 3.2 | 0.00 | 0.00 | 0.00 | 87 | 1008.8 |
| 20260502220402 | 7 | 251 | 0.0 | 3.2 | 0.00 | 0.00 | 0.00 | 85 | 1008.8 |
| 20260502215705 | 7 | 251 | 0.0 | 3.2 | 0.00 | 0.00 | 0.00 | 85 | 1008.8 |
| 20260502214202 | 7 | 228 | 0.0 | 3.2 | 0.00 | 0.00 | 0.00 | 86 | 1008.7 |
| 20260502213400 | 7 | 25 | 0.0 | 1.6 | 0.00 | 0.00 | 0.00 | 82 | 1008.6 |
| 20260502212702 | 7 | 25 | 0.0 | 1.6 | 0.00 | 0.00 | 0.00 | 82 | 1008.6 |
| 20260502211903 | 8 | 186 | 0.0 | 3.2 | 0.00 | 0.00 | 0.00 | 83 | 1008.8 |
| 20260502211201 | 8 | 186 | 0.0 | 3.2 | 0.00 | 0.00 | 0.00 | 83 | 1008.8 |
| 20260502211058 | 8 | 0 | 3.2 | 3.2 | 0.00 | 0.00 | 0.00 | 80 | 1008.8 |
| 20260502205704 | 8 | 0 | 3.2 | 3.2 | 0.00 | 0.00 | 0.00 | 80 | 1008.8 |
| 20260502204201 | 9 | 340 | 0.0 | 3.2 | 0.00 | 0.00 | 0.00 | 79 | 1008.8 |
| 20260502202629 | 9 | 207 | 1.6 | 3.2 | 0.00 | 0.00 | 0.00 | 78 | 1008.7 |
| 20260502201130 | 10 | 146 | 0.0 | 3.2 | 0.00 | 0.00 | 0.00 | 73 | 1008.9 |
| 20260502195629 | 11 | 39 | 0.0 | 3.2 | 0.00 | 0.00 | 0.00 | 70 | 1008.8 |
| 20260502195033 | 11 | 17 | 1.6 | 3.2 | 0.00 | 0.00 | 0.00 | 67 | 1008.7 |
| 20260502194824 | 11 | 17 | 1.6 | 3.2 | 0.00 | 0.00 | 0.00 | 67 | 1008.7 |
| 20260502192630 | 11 | 190 | 0.0 | 6.4 | 0.00 | 0.00 | 0.00 | 67 | 1008.7 |
| 20260502191103 | 12 | 22 | 1.6 | 3.2 | 0.00 | 0.00 | 0.00 | 62 | 1008.6 |
| 20260502190306 | 13 | 205 | 0.0 | 4.8 | 0.00 | 0.00 | 0.00 | 60 | 1008.5 |
| 20260502185819 | 13 | 205 | 0.0 | 4.8 | 0.00 | 0.00 | 0.00 | 60 | 1008.5 |
| 20260502184102 | 13 | 269 | 0.0 | 8.0 | 0.00 | 0.00 | 0.00 | 57 | 1008.6 |
| 20260502184004 | 13 | 228 | 4.8 | 8.0 | 0.00 | 0.00 | 0.00 | 56 | 1008.6 |
| 20260502183532 | 13 | 228 | 4.8 | 8.0 | 0.00 | 0.00 | 0.00 | 56 | 1008.6 |
| 20260502181754 | 13 | 239 | 0.0 | 9.7 | 0.00 | 0.00 | 0.00 | 55 | 1008.6 |
| 20260502181056 | 13 | 239 | 0.0 | 9.7 | 0.00 | 0.00 | 0.00 | 55 | 1008.6 |
| 20260502164002 | 14 | 264 | 6.4 | 8.0 | 0.00 | 0.00 | 0.00 | 51 | 1009.0 |
| 20260502163205 | 15 | 266 | 4.8 | 14.5 | 0.00 | 0.00 | 0.00 | 51 | 1009.0 |
| 20260502162714 | 15 | 266 | 4.8 | 14.5 | 0.00 | 0.00 | 0.00 | 51 | 1009.0 |
| 20260502161007 | 15 | 263 | 6.4 | 9.7 | 0.00 | 0.00 | 0.00 | 48 | 1009.2 |
| 20260502151000 | 15 | 264 | 6.4 | 14.5 | 0.00 | 0.00 | 0.00 | 43 | 1009.7 |
| 20260502150204 | 16 | 282 | 3.2 | 16.1 | 0.00 | 0.00 | 0.00 | 41 | 1009.4 |
| 20260502122353 | 17 | 256 | 3.2 | 12.9 | 0.00 | 0.00 | 0.00 | 35 | 1010.2 |
| 20260502121552 | 18 | 235 | 8.0 | 12.9 | 0.00 | 0.00 | 0.00 | 34 | 1010.4 |
| 20260502120843 | 18 | 235 | 8.0 | 12.9 | 0.00 | 0.00 | 0.00 | 34 | 1010.4 |
| 20260502115540 | 18 | 237 | 3.2 | 19.3 | 0.00 | 0.00 | 0.00 | 35 | 1010.3 |
| 20260502114533 | 18 | 256 | 6.4 | 17.7 | 0.00 | 0.00 | 0.00 | 34 | 1010.5 |
| 20260502114025 | 18 | 256 | 6.4 | 17.7 | 0.00 | 0.00 | 0.00 | 34 | 1010.5 |
| 20260502112305 | 18 | 254 | 9.7 | 16.1 | 0.00 | 0.00 | 0.00 | 34 | 1010.6 |
| 20260502111505 | 18 | 271 | 6.4 | 16.1 | 0.00 | 0.00 | 0.00 | 30 | 1010.6 |
| 20260502110804 | 18 | 271 | 6.4 | 16.1 | 0.00 | 0.00 | 0.00 | 30 | 1010.6 |
| 20260502105306 | 17 | 244 | 14.5 | 16.1 | 0.00 | 0.00 | 0.00 | 33 | 1010.5 |
| 20260502103754 | 18 | 243 | 4.8 | 16.1 | 0.00 | 0.00 | 0.00 | 33 | 1010.8 |
| 20260502102232 | 17 | 204 | 11.3 | 16.1 | 0.00 | 0.00 | 0.00 | 31 | 1011.0 |
| 20260502100732 | 18 | 234 | 4.8 | 16.1 | 0.00 | 0.00 | 0.00 | 32 | 1011.0 |
| 20260502091422 | 18 | 227 | 1.6 | 8.0 | 0.00 | 0.00 | 0.00 | 35 | 1011.0 |
| 20260502090730 | 18 | 227 | 1.6 | 8.0 | 0.00 | 0.00 | 0.00 | 35 | 1011.0 |
| 20260502070652 | 13 | 201 | 3.2 | 6.4 | 0.00 | 0.00 | 0.00 | 53 | 1012.6 |
| 20260502065840 | 12 | 113 | 0.0 | 4.8 | 0.00 | 0.00 | 0.00 | 57 | 1012.8 |
| 20260502065130 | 12 | 113 | 0.0 | 4.8 | 0.00 | 0.00 | 0.00 | 57 | 1012.8 |
| 20260502063626 | 12 | 115 | 1.6 | 6.4 | 0.00 | 0.00 | 0.00 | 58 | 1013.1 |
| 20260502062756 | 11 | 224 | 0.0 | 6.4 | 0.00 | 0.00 | 0.00 | 59 | 1013.3 |
| 20260502062315 | 11 | 224 | 0.0 | 6.4 | 0.00 | 0.00 | 0.00 | 59 | 1013.3 |
| 20260502060601 | 10 | 234 | 0.0 | 6.4 | 0.00 | 0.00 | 0.00 | 64 | 1013.4 |
| 20260502055101 | 10 | 141 | 4.8 | 6.4 | 0.00 | 0.00 | 0.00 | 65 | 1013.5 |
| 20260502053728 | 8 | 186 | 1.6 | 3.2 | 0.00 | 0.00 | 0.00 | 72 | 1013.6 |
| 20260502053603 | 9 | 358 | 0.0 | 3.2 | 0.00 | 0.00 | 0.00 | 66 | 1013.5 |
| 20260502053458 | 8 | 186 | 1.6 | 3.2 | 0.00 | 0.00 | 0.00 | 72 | 1013.6 |
| 20260502051959 | 6 | 135 | 0.0 | 3.2 | 0.00 | 0.00 | 0.00 | 82 | 1013.5 |
| 20260502050601 | 6 | 135 | 0.0 | 3.2 | 0.00 | 0.00 | 0.00 | 82 | 1013.5 |
| 20260502045804 | 5 | 199 | 0.0 | 1.6 | 0.00 | 0.00 | 0.00 | 83 | 1013.7 |
| 20260502045101 | 5 | 199 | 0.0 | 1.6 | 0.00 | 0.00 | 0.00 | 83 | 1013.7 |
| 20260502044306 | 5 | 293 | 0.0 | 3.2 | 0.00 | 0.00 | 0.00 | 85 | 1013.8 |
| 20260502043601 | 5 | 293 | 0.0 | 3.2 | 0.00 | 0.00 | 0.00 | 85 | 1013.8 |
| 20260502042051 | 4 | 330 | 0.0 | 3.2 | 0.00 | 0.00 | 0.00 | 85 | 1013.9 |
| 20260502040532 | 4 | 212 | 1.6 | 3.2 | 0.00 | 0.00 | 0.00 | 83 | 1014.0 |
| 20260502035030 | 4 | 69 | 0.0 | 3.2 | 0.00 | 0.00 | 0.00 | 83 | 1014.1 |
| 20260502034235 | 4 | 328 | 0.0 | 3.2 | 0.00 | 0.00 | 0.00 | 83 | 1014.2 |
| 20260502033740 | 4 | 328 | 0.0 | 3.2 | 0.00 | 0.00 | 0.00 | 83 | 1014.2 |
| 20260502032029 | 5 | 190 | 1.6 | 3.2 | 0.00 | 0.00 | 0.00 | 81 | 1014.3 |
| 20260502031243 | 5 | 231 | 0.0 | 3.2 | 0.00 | 0.00 | 0.00 | 80 | 1014.4 |
| 20260502030529 | 5 | 231 | 0.0 | 3.2 | 0.00 | 0.00 | 0.00 | 80 | 1014.4 |
| 20260502025729 | 5 | 337 | 0.0 | 1.6 | 0.00 | 0.00 | 0.00 | 84 | 1014.5 |
| 20260502025241 | 5 | 337 | 0.0 | 1.6 | 0.00 | 0.00 | 0.00 | 84 | 1014.5 |
| 20260502024214 | 5 | 124 | 0.0 | 3.2 | 0.00 | 0.00 | 0.00 | 76 | 1014.7 |
| 20260502023740 | 5 | 124 | 0.0 | 3.2 | 0.00 | 0.00 | 0.00 | 76 | 1014.7 |
| 20260502022002 | 6 | 135 | 0.0 | 4.8 | 0.00 | 0.00 | 0.00 | 76 | 1015.1 |
| 20260502020502 | 6 | 141 | 0.0 | 3.2 | 0.00 | 0.00 | 0.00 | 74 | 1015.0 |
| 20260502015654 | 6 | 284 | 0.0 | 3.2 | 0.00 | 0.00 | 0.00 | 72 | 1015.2 |
| 20260502015214 | 6 | 284 | 0.0 | 3.2 | 0.00 | 0.00 | 0.00 | 72 | 1015.2 |
| 20260502013504 | 7 | 156 | 0.0 | 3.2 | 0.00 | 0.00 | 0.00 | 73 | 1015.3 |
| 20260502012612 | 7 | 0 | 0.0 | 4.8 | 0.00 | 0.00 | 0.00 | 69 | 1015.6 |
| 20260502012126 | 7 | 18 | 0.0 | 3.2 | 0.00 | 0.00 | 0.00 | 70 | 1015.4 |
| 20260502010502 | 7 | 0 | 0.0 | 4.8 | 0.00 | 0.00 | 0.00 | 69 | 1015.6 |
| 20260502005658 | 7 | 207 | 3.2 | 4.8 | 0.00 | 0.00 | 0.00 | 69 | 1015.8 |
| 20260502005214 | 7 | 207 | 3.2 | 4.8 | 0.00 | 0.00 | 0.00 | 69 | 1015.8 |